Location: Unspecified
(0.0000°N, 0.0000°E)
Time: 16:07:50
(UTC+02:00)

NATO 3D Rocket - Visible Passes

Search period start: 04 August 2015 00:00
Search period end: 14 August 2015 00:00
Orbit: 670 x 2297 km, 21.5° (Epoch: 01 August)

Date Brightness Start Highest point End Pass type
(mag) Time Alt. Az. Time Alt. Az. Time Alt. Az.
04 Aug 7.0 00:23:21 10° NW 00:28:06 18° NNW 00:28:06 18° NNW visible
04 Aug 3.4 06:43:54 41° WSW 06:45:04 52° SSW 06:49:38 10° SE visible
04 Aug 6.9 21:12:30 10° WNW 21:24:53 35° NNW 21:35:40 10° NE visible
04 Aug 6.7 23:23:04 10° NW 23:32:26 23° N 23:34:34 22° N visible
05 Aug 5.0 05:50:54 27° ESE 05:50:54 27° ESE 05:53:01 10° ESE visible
05 Aug 6.9 20:12:53 10° W 20:25:41 41° NNW 20:37:49 10° NE visible
05 Aug 6.9 22:22:44 10° WNW 22:33:31 26° N 22:40:58 14° NE visible
06 Aug 7.1 00:32:29 10° NW 00:36:30 18° NNW 00:36:30 18° NNW visible
06 Aug 4.3 06:53:27 27° SW 06:54:26 29° SSW 06:58:30 10° SE visible
06 Aug 7.0 21:22:38 10° WNW 21:34:22 30° N 21:44:45 10° NE visible
06 Aug 6.7 23:32:38 10° NW 23:42:16 24° N 23:42:50 24° N visible
07 Aug 5.1 06:00:21 22° SE 06:00:21 22° SE 06:02:12 10° SE visible
07 Aug 7.0 20:22:59 10° WNW 20:35:03 34° NNW 20:46:41 10° NE visible
07 Aug 6.8 22:32:38 10° NW 22:43:16 26° N 22:49:07 18° NNE visible
08 Aug 7.1 00:41:12 10° NW 00:44:38 18° NW 00:44:38 18° NW visible
08 Aug 4.9 07:02:48 17° SW 07:03:51 18° SSW 07:07:02 10° SSE visible
08 Aug 7.0 21:32:45 10° WNW 21:44:01 28° N 21:54:13 10° NE visible
08 Aug 6.7 23:41:42 10° NW 23:50:52 27° N 23:50:52 27° N visible
09 Aug 5.4 06:09:35 17° SSE 06:09:35 17° SSE 06:11:05 10° SE visible
09 Aug 7.1 20:33:11 10° WNW 20:44:38 30° N 20:55:48 10° NE visible
09 Aug 6.7 22:42:06 10° NW 22:53:04 27° N 22:57:04 23° NNE visible
10 Aug 7.2 00:49:38 10° NW 00:52:35 18° NW 00:52:35 18° NW visible
10 Aug 5.4 07:11:54 10° SW 07:13:23 11° SSW 07:14:56 10° S visible
10 Aug 7.0 21:42:34 10° NW 21:53:47 28° N 22:03:13 12° NE visible
10 Aug 6.6 23:50:23 10° NW 23:58:44 30° NNW 23:58:44 30° NNW visible
11 Aug 5.6 06:18:36 14° S 06:18:36 14° S 06:19:41 10° SSE visible
11 Aug 7.1 20:43:16 10° NW 20:54:21 28° N 21:05:20 10° NE visible
11 Aug 6.5 22:51:07 10° NW 23:02:48 31° N 23:04:53 30° NNE visible
12 Aug 7.3 00:57:59 10° NW 01:00:24 17° NW 01:00:24 17° NW visible
12 Aug 6.8 21:51:58 10° NW 22:03:31 30° N 22:11:00 18° NE visible
12 Aug 6.6 23:58:52 10° NW 00:06:31 32° NNW 00:06:31 32° NNW visible
13 Aug 5.8 06:27:25 11° S 06:27:25 11° S 06:27:59 10° S visible
13 Aug 7.0 20:53:01 10° NW 21:04:06 29° N 21:15:15 10° ENE visible
13 Aug 6.3 22:59:50 10° NW 23:12:22 38° NNE 23:12:38 38° NNE visible
